{"data":{"norad_id":55274,"epoch":"2026-09-20T05:14:03.567840Z","epoch_age_seconds":117723,"freshness":"FRESH","line1":"1 55274U 23010F   26263.21809685  .00000128  00000+0  18487-4 0  9999","line2":"2 55274  69.9982 254.1408 0003541 265.9745  94.1010 14.98331450202415","mean_motion":14.9833145,"eccentricity":0.0003541,"inclination_deg":69.9982,"raan_deg":254.1408,"arg_perigee_deg":265.9745,"mean_anomaly_deg":94.101,"bstar":1.8487e-5,"rev_number":20241,"period_min":96.106906118803,"perigee_km":569.59034522775,"apogee_km":574.51246865754,"semimajor_km":6950.1884069426,"source":"CELESTRAK","updated_at":"2026-09-21T09:00:33.164726Z"}}